EW7351 Weather Reports


time (UTC)temp
C
wind
direction
speed
KPH
gust
KPH
rain 1hr
cm
rain 24hr
cm
rain mn
cm
humidity
%
barometer
mb
20260510090939 22 12 4.8 22.5 0.00 0.00 0.00 85 1011.9
20260510090412 23 46 3.2 16.1 0.00 0.00 0.00 85 1011.6
20260510085843 23 79 1.6 6.4 0.00 0.00 0.00 63 1011.5
20260510085340 23 6 1.6 6.4 0.00 0.00 0.00 63 1011.3
20260510085013 23 74 0.0 3.2 0.00 0.00 0.00 63 1010.4
20260510084857 23 54 0.0 3.2 0.00 0.00 0.00 63 1010.8
20260510083811 23 37 0.0 4.8 0.00 0.00 0.00 63 1010.6
20260510083241 23 41 1.6 4.8 0.00 0.00 0.00 62 1010.7
20260510082739 23 37 1.6 6.4 0.00 0.00 0.00 62 1010.7
20260510082211 23 359 1.6 6.4 0.00 0.00 0.00 62 1010.8
20260510081930 23 31 1.6 4.8 0.00 0.00 0.00 61 1010.5
20260510081141 23 153 1.6 3.2 0.00 0.00 0.00 60 1010.3
20260510080640 23 164 0.0 3.2 0.00 0.00 0.00 60 1010.0
20260510080115 23 164 0.0 0.0 0.00 0.00 0.00 60 1009.7
20260510075549 23 164 0.0 0.0 0.00 0.00 0.00 60 1009.6
20260510075019 23 164 0.0 4.8 0.00 0.00 0.00 60 1009.4
20260510074517 23 164 0.0 4.8 0.00 0.00 0.00 60 1009.3
20260510073952 23 164 0.0 11.3 0.00 0.00 0.00 60 1009.1
20260510073425 23 164 1.6 11.3 0.00 0.00 0.00 60 1008.9
20260510072857 23 164 3.2 8.0 0.00 0.00 0.00 59 1008.7
20260510072359 23 160 1.6 8.0 0.00 0.00 0.00 58 1008.9
20260510071820 23 109 0.0 4.8 0.00 0.00 0.00 58 1009.0
20260510071317 24 71 0.0 9.7 0.00 0.00 0.00 58 1009.2
20260510070753 24 11 0.0 9.7 0.00 0.00 0.00 58 1009.7
20260510070228 24 4 1.6 9.7 0.00 0.00 0.00 58 1010.1
20260510065659 23 36 3.2 9.7 0.00 0.00 0.00 58 1010.2
20260510065158 23 20 1.6 8.0 0.00 0.00 0.00 57 1010.3
20260510064629 23 10 3.2 8.0 0.00 0.00 0.00 57 1010.3
20260510064126 23 0 1.6 8.0 0.00 0.00 0.00 57 1010.3
20260510063623 23 2 1.6 8.0 0.00 0.00 0.00 57 1010.2
20260510063121 23 1 3.2 8.0 0.00 0.00 0.00 57 1010.2
20260510062553 23 359 4.8 8.0 0.00 0.00 0.00 57 1010.3
20260510062050 23 13 1.6 6.4 0.00 0.00 0.00 57 1010.3
20260510061547 23 170 0.0 3.2 0.00 0.00 0.00 57 1009.9
20260510061044 23 170 0.0 8.0 0.00 0.00 0.00 57 1009.3
20260510060541 23 170 1.6 8.0 0.00 0.00 0.00 57 1008.8
20260510060307 23 172 3.2 12.9 0.00 0.00 0.00 57 1008.4
20260510055513 23 170 3.2 12.9 0.00 0.00 0.00 57 1008.4
20260510055011 23 160 3.2 12.9 0.00 0.00 0.00 57 1008.4
20260510054443 23 164 3.2 12.9 0.00 0.00 0.00 58 1008.4
20260510053941 23 164 3.2 14.5 0.00 0.00 0.00 58 1008.3
20260510053413 23 158 4.8 14.5 0.00 0.00 0.00 58 1008.1
20260510052911 23 151 4.8 17.7 0.00 0.00 0.00 58 1007.9
20260510052346 23 168 4.8 17.7 0.00 0.00 0.00 58 1008.1
20260510052255 23 160 3.2 8.0 0.00 0.00 0.00 58 1008.2
20260510051252 24 162 3.2 12.9 0.00 0.00 0.00 57 1008.3
20260510051009 24 163 3.2 12.9 0.00 0.00 0.00 57 1008.1
20260510050512 23 138 4.8 17.7 0.00 0.00 0.00 78 1008.0
20260510045736 23 143 6.4 17.7 0.00 0.00 0.00 77 1007.9
20260510045236 24 120 8.0 19.3 0.00 0.00 0.00 77 1007.9
20260510044736 24 142 6.4 19.3 0.00 0.00 0.00 77 1007.7
20260510044222 24 132 4.8 14.5 0.00 0.00 0.00 76 1007.7
20260510043724 24 146 4.8 12.9 0.00 0.00 0.00 75 1007.6
20260510043206 24 136 6.4 12.9 0.00 0.00 0.00 75 1007.5
20260510042928 24 141 4.8 12.9 0.00 0.00 0.00 73 1007.6
20260510042204 24 143 3.2 12.9 0.00 0.00 0.00 72 1007.7
20260510041922 24 139 3.2 9.7 0.00 0.00 0.00 70 1007.9
20260510041200 24 121 3.2 11.3 0.00 0.00 0.00 69 1008.0
20260510040703 24 143 1.6 11.3 0.00 0.00 0.00 68 1008.0
20260510040622 24 127 3.2 6.4 0.00 0.00 0.00 68 1008.0
20260510035640 24 110 1.6 8.0 0.00 0.00 0.00 68 1007.9
20260510035118 24 125 1.6 4.8 0.00 0.00 0.00 68 1007.9
20260510034617 24 156 1.6 8.0 0.00 0.00 0.00 68 1007.9
20260510034107 24 141 1.6 8.0 0.00 0.00 0.00 67 1007.8
20260510033539 24 138 1.6 4.8 0.00 0.00 0.00 68 1007.8
20260510033035 23 117 0.0 3.2 0.00 0.00 0.00 69 1007.8
20260510032534 24 148 0.0 1.6 0.00 0.00 0.00 68 1007.8
20260510032037 24 116 0.0 3.2 0.00 0.00 0.00 67 1007.9
20260510031728 24 131 0.0 3.2 0.00 0.00 0.00 67 1007.9
20260510031203 23 115 0.0 4.8 0.00 0.00 0.00 69 1008.0
20260510031048 24 128 0.0 4.8 0.00 0.00 0.00 68 1007.9
20260510030608 23 129 0.0 3.2 0.00 0.00 0.00 70 1007.9
20260510025411 23 132 0.0 3.2 0.00 0.00 0.00 71 1007.9
20260510024842 23 117 0.0 0.0 0.00 0.00 0.00 71 1007.9
20260510024339 23 58 0.0 0.0 0.00 0.00 0.00 71 1007.9
20260510024052 23 58 0.0 0.0 0.00 0.00 0.00 70 1007.8
20260510023333 23 58 0.0 0.0 0.00 0.00 0.00 70 1007.8
20260510022810 23 58 0.0 0.0 0.00 0.00 0.00 69 1007.7
20260510022240 23 58 0.0 0.0 0.00 0.00 0.00 68 1007.7
20260510021737 23 58 0.0 0.0 0.00 0.00 0.00 67 1007.6
20260510021211 23 58 0.0 0.0 0.00 0.00 0.00 67 1007.6
20260510020708 23 58 0.0 0.0 0.00 0.00 0.00 66 1007.6
20260510020207 24 58 0.0 0.0 0.00 0.00 0.00 66 1007.5
20260510015654 24 58 0.0 0.0 0.00 0.00 0.00 66 1007.4
20260510015156 24 58 0.0 0.0 0.00 0.00 0.00 65 1007.3
20260510014909 25 58 0.0 0.0 0.00 0.00 0.00 64 1007.3
20260510014543 25 58 0.0 0.0 0.00 0.00 0.00 62 1007.2
20260510014205 25 58 0.0 0.0 0.00 0.00 0.00 63 1007.3
20260510013536 25 58 0.0 0.0 0.00 0.00 0.00 59 1007.2
20260510012810 25 58 0.0 0.0 0.00 0.00 0.00 58 1007.1
20260510012026 26 58 0.0 0.0 0.00 0.00 0.00 57 1007.0
20260510011456 26 58 0.0 3.2 0.00 0.00 0.00 57 1006.9
20260510011217 26 58 0.0 3.2 0.00 0.00 0.00 56 1006.8
20260510010429 26 30 0.0 1.6 0.00 0.00 0.00 54 1006.8
20260510005900 27 30 0.0 1.6 0.00 0.00 0.00 53 1006.7
20260510005357 27 30 0.0 1.6 0.00 0.00 0.00 52 1006.7
20260510004828 27 47 0.0 1.6 0.00 0.00 0.00 51 1006.7
20260510004327 27 49 0.0 1.6 0.00 0.00 0.00 50 1006.7
20260510003758 28 49 0.0 1.6 0.00 0.00 0.00 50 1006.7
20260510003256 28 49 0.0 1.6 0.00 0.00 0.00 50 1006.7
20260510002752 28 69 0.0 4.8 0.00 0.00 0.00 49 1006.7
20260510002511 28 75 0.0 3.2 0.00 0.00 0.00 47 1006.7
20260510001722 29 49 0.0 6.4 0.00 0.00 0.00 46 1006.8
20260510001218 29 324 0.0 6.4 0.00 0.00 0.00 44 1006.8
20260510000654 30 69 0.0 6.4 0.00 0.00 0.00 43 1006.8
20260510000126 30 35 0.0 6.4 0.00 0.00 0.00 42 1006.7
20260509235623 30 66 0.0 4.8 0.00 0.00 0.00 41 1006.7
20260509235342 30 54 0.0 4.8 0.00 0.00 0.00 41 1006.7
20260509234619 30 62 0.0 4.8 0.00 0.00 0.00 42 1006.7
20260509234051 30 77 0.0 4.8 0.00 0.00 0.00 44 1006.7
20260509234035 30 15 0.0 4.8 0.00 0.00 0.00 42 1006.7
20260509233044 30 336 0.0 4.8 0.00 0.00 0.00 42 1006.7
20260509232542 30 336 0.0 4.8 0.00 0.00 0.00 43 1006.7
20260509232018 30 56 0.0 4.8 0.00 0.00 0.00 45 1006.7
20260509231448 31 68 0.0 4.8 0.00 0.00 0.00 43 1006.7
20260509230947 30 68 0.0 8.0 0.00 0.00 0.00 42 1006.8
20260509230422 30 338 1.6 8.0 0.00 0.00 0.00 40 1006.8
20260509225852 30 73 1.6 8.0 0.00 0.00 0.00 38 1006.7
20260509225351 31 329 1.6 8.0 0.00 0.00 0.00 38 1006.7
20260509224824 31 36 0.0 8.0 0.00 0.00 0.00 39 1006.7
20260509224256 31 140 0.0 8.0 0.00 0.00 0.00 41 1006.7
20260509224020 31 86 0.0 4.8 0.00 0.00 0.00 41 1006.7
20260509223250 31 252 1.6 8.0 0.00 0.00 0.00 42 1006.7
20260509222746 31 130 1.6 8.0 0.00 0.00 0.00 43 1006.7
20260509222222 31 300 0.0 4.8 0.00 0.00 0.00 45 1006.6
20260509221654 31 51 0.0 4.8 0.00 0.00 0.00 46 1006.6
20260509221410 31 314 0.0 4.8 0.00 0.00 0.00 45 1006.7
20260509220645 30 10 0.0 4.8 0.00 0.00 0.00 46 1006.7
20260509220118 30 339 1.6 9.7 0.00 0.00 0.00 47 1006.7
20260509215558 30 121 3.2 11.3 0.00 0.00 0.00 48 1006.7
20260509215058 30 349 1.6 11.3 0.00 0.00 0.00 45 1006.7
20260509214558 31 11 1.6 9.7 0.00 0.00 0.00 45 1006.8
20260509214053 31 6 0.0 6.4 0.00 0.00 0.00 48 1006.8
20260509213530 31 39 0.0 6.4 0.00 0.00 0.00 44 1006.9
20260509213000 31 9 1.6 6.4 0.00 0.00 0.00 46 1006.9
20260509212459 31 119 1.6 8.0 0.00 0.00 0.00 47 1007.1
20260509211942 31 78 1.6 8.0 0.00 0.00 0.00 47 1007.1
20260509211440 31 107 1.6 11.3 0.00 0.00 0.00 47 1007.1
20260509210940 31 82 1.6 11.3 0.00 0.00 0.00 45 1007.2
20260509210440 31 59 0.0 4.8 0.00 0.00 0.00 49 1007.3
20260509205910 31 338 1.6 9.7 0.00 0.00 0.00 48 1007.2
20260509205408 31 115 1.6 9.7 0.00 0.00 0.00 52 1007.4
20260509205104 30 155 0.0 6.4 0.00 0.00 0.00 54 1007.5
20260509204317 30 28 1.6 12.9 0.00 0.00 0.00 50 1007.6
20260509203748 30 15 3.2 12.9 0.00 0.00 0.00 47 1007.6
20260509203246 30 100 4.8 12.9 0.00 0.00 0.00 51 1007.7
20260509202733 30 330 3.2 12.9 0.00 0.00 0.00 48 1007.8
20260509202231 30 69 1.6 6.4 0.00 0.00 0.00 53 1007.9
20260509201734 30 146 1.6 6.4 0.00 0.00 0.00 53 1007.9
20260509201208 30 74 1.6 9.7 0.00 0.00 0.00 51 1008.0
20260509200705 30 1 1.6 9.7 0.00 0.00 0.00 51 1008.0
20260509200142 30 96 0.0 8.0 0.00 0.00 0.00 56 1008.0
20260509195614 30 18 1.6 8.0 0.00 0.00 0.00 52 1008.0
20260509195317 29 38 3.2 9.7 0.00 0.00 0.00 56 1008.0
20260509194739 30 26 1.6 9.7 0.00 0.00 0.00 54 1008.1
20260509194017 30 146 1.6 8.0 0.00 0.00 0.00 54 1008.2
20260509193517 30 176 1.6 8.0 0.00 0.00 0.00 57 1008.2
20260509193218 30 144 1.6 11.3 0.00 0.00 0.00 61 1008.2
20260509192428 29 357 1.6 11.3 0.00 0.00 0.00 59 1008.2
20260509191900 30 341 1.6 11.3 0.00 0.00 0.00 57 1008.3
20260509191338 30 53 1.6 11.3 0.00 0.00 0.00 58 1008.4
20260509190837 29 47 1.6 9.7 0.00 0.00 0.00 59 1008.4
20260509190316 29 77 1.6 9.7 0.00 0.00 0.00 62 1008.4
20260509185941 29 321 1.6 9.7 0.00 0.00 0.00 61 1008.5
20260509185441 28 131 3.2 20.9 0.00 0.00 0.00 61 1008.5
20260509184711 28 73 4.8 20.9 0.00 0.00 0.00 60 1008.4
20260509184212 28 347 3.2 16.1 0.00 0.00 0.00 59 1008.4
20260509183709 28 45 1.6 16.1 0.00 0.00 0.00 62 1008.4
20260509183435 28 72 3.2 12.9 0.00 0.00 0.00 62 1008.4
20260509182648 28 322 3.2 14.5 0.00 0.00 0.00 60 1008.4
20260509182149 28 83 3.2 14.5 0.00 0.00 0.00 64 1008.5
20260509181916 28 50 3.2 12.9 0.00 0.00 0.00 61 1008.6
20260509181128 28 323 3.2 12.9 0.00 0.00 0.00 60 1008.7
20260509180627 28 328 3.2 11.3 0.00 0.00 0.00 61 1008.7
20260509180338 28 63 1.6 9.7 0.00 0.00 0.00 62 1008.7
20260509175548 28 326 1.6 12.9 0.00 0.00 0.00 61 1008.8
20260509175026 28 348 1.6 12.9 0.00 0.00 0.00 62 1008.9
20260509174747 27 347 1.6 9.7 0.00 0.00 0.00 62 1009.0
20260509174024 27 336 1.6 9.7 0.00 0.00 0.00 62 1008.9
20260509173500 28 354 1.6 9.7 0.00 0.00 0.00 61 1009.0
20260509172941 28 355 1.6 11.3 0.00 0.00 0.00 64 1009.1
20260509172416 28 337 1.6 11.3 0.00 0.00 0.00 61 1009.1
20260509171850 28 249 1.6 8.0 0.00 0.00 0.00 60 1009.1
20260509171327 27 118 1.6 8.0 0.00 0.00 0.00 64 1009.2
20260509170758 27 27 1.6 8.0 0.00 0.00 0.00 64 1009.3
20260509170258 27 356 3.2 9.7 0.00 0.00 0.00 62 1009.3
20260509165755 27 359 1.6 9.7 0.00 0.00 0.00 62 1009.2
20260509165255 27 336 1.6 11.3 0.00 0.00 0.00 66 1009.1
20260509164755 27 354 1.6 11.3 0.00 0.00 0.00 66 1009.2
20260509164256 27 68 1.6 6.4 0.00 0.00 0.00 64 1009.2
20260509163943 27 8 1.6 9.7 0.00 0.00 0.00 64 1009.2
20260509163225 27 52 1.6 9.7 0.00 0.00 0.00 65 1009.3
20260509162659 26 5 1.6 6.4 0.00 0.00 0.00 66 1009.2
20260509162157 26 329 1.6 6.4 0.00 0.00 0.00 67 1009.2
20260509161633 26 22 3.2 11.3 0.00 0.00 0.00 68 1009.2
20260509161128 26 20 1.6 11.3 0.00 0.00 0.00 68 1009.1
20260509160626 26 334 3.2 11.3 0.00 0.00 0.00 68 1009.2
20260509160349 25 13 4.8 17.7 0.00 0.00 0.00 69 1009.2
20260509155623 25 326 3.2 17.7 0.00 0.00 0.00 69 1009.2
20260509155118 25 9 3.2 11.3 0.00 0.00 0.00 70 1009.1
20260509154614 25 338 3.2 9.7 0.00 0.00 0.00 69 1009.1
20260509154113 25 38 1.6 11.3 0.00 0.00 0.00 71 1009.1
20260509153609 25 358 3.2 11.3 0.00 0.00 0.00 70 1009.1
20260509153105 25 323 1.6 9.7 0.00 0.00 0.00 71 1009.1
20260509152825 25 349 3.2 9.7 0.00 0.00 0.00 72 1009.0
20260509152037 25 72 3.2 14.5 0.00 0.00 0.00 72 1008.9
20260509151512 25 337 3.2 14.5 0.00 0.00 0.00 71 1009.0
20260509150946 24 352 4.8 12.9 0.00 0.00 0.00 72 1009.0
20260509150420 24 350 4.8 9.7 0.00 0.00 0.00 73 1009.0
20260509150119 24 342 4.8 17.7 0.00 0.00 0.00 73 1009.1
20260509145349 24 351 4.8 9.7 0.00 0.00 0.00 74 1009.1
20260509144848 23 320 3.2 12.9 0.00 0.00 0.00 74 1009.2
20260509144544 23 321 3.2 12.9 0.00 0.00 0.00 76 1009.3
20260509144243 23 330 1.6 11.3 0.00 0.00 0.00 76 1009.2
20260509143251 23 9 1.6 11.3 0.00 0.00 0.00 77 1009.2
20260509142749 23 353 3.2 9.7 0.00 0.00 0.00 78 1009.2
20260509142222 23 12 3.2 9.7 0.00 0.00 0.00 78 1009.1
20260509141720 23 350 1.6 9.7 0.00 0.00 0.00 77 1009.1
20260509141216 23 17 1.6 9.7 0.00 0.00 0.00 77 1009.0
20260509140713 23 274 3.2 12.9 0.00 0.00 0.00 80 1008.9
20260509140147 22 6 3.2 12.9 0.00 0.00 0.00 79 1008.9
20260509135838 22 70 3.2 9.7 0.00 0.00 0.00 79 1008.8
20260509135114 23 37 3.2 9.7 0.00 0.00 0.00 78 1008.9
20260509134550 22 58 3.2 12.9 0.00 0.00 0.00 79 1008.8
20260509134238 22 28 3.2 12.9 0.00 0.00 0.00 81 1008.7
20260509133454 22 36 3.2 12.9 0.00 0.00 0.00 81 1008.7
20260509132941 22 54 1.6 12.9 0.00 0.00 0.00 82 1008.7
20260509132658 22 274 0.0 9.7 0.00 0.00 0.00 83 1008.7
20260509131911 22 359 3.2 8.0 0.00 0.00 0.00 84 1008.6
20260509131346 21 27 3.2 11.3 0.00 0.00 0.00 84 1008.4
20260509130820 21 347 0.0 9.7 0.00 0.00 0.00 86 1008.5
20260509130316 21 276 0.0 4.8 0.00 0.00 0.00 87 1008.6
20260509125748 21 228 0.0 4.8 0.00 0.00 0.00 88 1008.6
20260509125242 21 276 0.0 4.8 0.00 0.00 0.00 89 1008.5
20260509124740 20 221 0.0 3.2 0.00 0.00 0.00 89 1008.5
20260509124210 20 224 0.0 3.2 0.00 0.00 0.00 89 1008.7
20260509123709 20 124 0.0 0.0 0.00 0.00 0.00 89 1008.5
20260509123142 19 124 0.0 0.0 0.00 0.00 0.00 89 1008.6
20260509122618 19 124 0.0 0.0 0.00 0.00 0.00 88 1008.7
20260509122320 19 124 0.0 0.0 0.00 0.00 0.00 88 1008.5
20260509121742 19 124 0.0 0.0 0.00 0.00 0.00 88 1008.6
20260509120954 20 124 0.0 0.0 0.00 0.00 0.00 88 1008.5
20260509120710 20 124 0.0 0.0 0.00 0.00 0.00 88 1008.5
20260509115948 20 124 0.0 0.0 0.00 0.00 0.00 88 1008.5
20260509115416 20 124 0.0 0.0 0.00 0.00 0.00 88 1008.5
20260509114847 20 124 0.0 0.0 0.00 0.00 0.00 87 1008.4
20260509114345 20 124 0.0 0.0 0.00 0.00 0.00 87 1008.2
20260509113841 20 124 0.0 0.0 0.00 0.00 0.00 87 1008.2
20260509113338 20 124 0.0 0.0 0.00 0.00 0.00 87 1008.0
20260509112813 20 124 0.0 0.0 0.00 0.00 0.00 86 1007.9
20260509112246 20 124 0.0 0.0 0.00 0.00 0.00 87 1007.9
20260509111744 20 124 0.0 1.6 0.00 0.00 0.00 87 1007.9
20260509111231 20 124 0.0 4.8 0.00 0.00 0.00 87 1007.8
20260509110734 20 124 0.0 4.8 0.00 0.00 0.00 87 1007.7
20260509110424 20 124 1.6 4.8 0.00 0.00 0.00 87 1007.7
20260509105931 20 114 1.6 6.4 0.00 0.00 0.00 87 1007.5
20260509105135 20 122 1.6 6.4 0.00 0.00 0.00 87 1007.6
20260509104633 20 134 0.0 1.6 0.00 0.00 0.00 87 1007.6
20260509104109 20 230 0.0 0.0 0.00 0.00 0.00 87 1007.7
20260509103814 20 231 0.0 0.0 0.00 0.00 0.00 87 1007.7
20260509103320 20 231 0.0 0.0 0.00 0.00 0.00 87 1007.6
20260509102532 20 230 0.0 0.0 0.00 0.00 0.00 87 1007.6
20260509102003 20 230 0.0 0.0 0.00 0.00 0.00 86 1007.5
20260509101502 20 231 0.0 0.0 0.00 0.00 0.00 86 1007.6
20260509100936 20 230 0.0 1.6 0.00 0.00 0.00 86 1007.5
20260509100628 20 231 0.0 1.6 0.00 0.00 0.00 86 1007.6
20260509100130 20 230 0.0 4.8 0.00 0.00 0.00 86 1007.4
20260509095340 20 235 1.6 4.8 0.00 0.00 0.00 86 1007.3
20260509095035 20 229 3.2 9.7 0.00 0.00 0.00 87 1007.2
20260509094250 20 238 1.6 8.0 0.00 0.00 0.00 87 1007.1
20260509093720 20 241 1.6 11.3 0.00 0.00 0.00 87 1007.0
20260509093219 20 195 4.8 11.3 0.00 0.00 0.00 87 1006.8
20260509092653 20 226 6.4 14.5 0.00 0.00 0.00 87 1006.2
20260509092344 20 150 4.8 14.5 0.00 0.00 0.00 87 1006.0
20260509091622 20 139 4.8 11.3 0.00 0.00 0.00 87 1006.0